National Weather Service Hourly Weather Roundup
NOAA NWS Hourly Roundups by Site
NOAA NWS Hourly Roundups by Site
Regional Weather Roundup for Sacramento, CA

To Select Another Site Choose from List

Select Site:  

000
ASUS46 KSTO 112315
RWRCA

NORTHERN AND CENTRAL CA REGIONAL WEATHER ROUNDUP
NATIONAL WEATHER SERVICE SACRAMENTO CA
400 PM PDT SAT JUL 11 2020

NOTE: FAIR INDICATES FEW OR NO CLOUDS BELOW 12,000 FEET WITH NO
SIGNIFICANT WEATHER AND/OR OBSTRUCTIONS TO VISIBILITY.

CAZ001-003-120000-
NORTHWEST AREA

CITY           SKY/WX    TMP DP  RH WIND       PRES   REMARKS
CRESCENT CITY  SUNNY     63  52  67 NW8       30.20S
UKIAH          SUNNY     99  35  10 W10       29.96F HX  93
$$

CAZ006-505>513-120000-
BAY AREA

CITY           SKY/WX    TMP DP  RH WIND       PRES   REMARKS
SANTA ROSA     SUNNY     94  50  22 S12       29.95F HX  91
SAN RAFAEL     N/A       MM  MM  MM MISG
NAPA           SUNNY     87  58  37 SW10      29.95F
CONCORD        SUNNY    101  43  13 NW15      29.93F HX  96
OAKLAND CITY   N/A       80  MM  MM MISG
OAKLAND        SUNNY     77  54  44 W17       29.99F
SAN FRAN CITY  N/A       70  MM  50 MISG
SAN FRAN ARPT  SUNNY     72  51  47 NW24      29.99F
LIVERMORE      SUNNY    100  30   8 W14       29.95F HX  94
HAYWARD        SUNNY     80  55  42 W14       29.98F
SAN JOSE ARPT  SUNNY     88  52  29 NW14      29.97F
$$
CAZ034-037-514>518-120000-
CENTRAL COAST

CITY           SKY/WX    TMP DP  RH WIND       PRES   REMARKS
WATSONVILLE    SUNNY     69  56  62 S10       30.02F
SALINAS        SUNNY     72  54  53 NW13      30.01F
MONTEREY       SUNNY     68  54  60 NW10      30.03F
SAN LUIS OBISP SUNNY     87  51  28 NW13      29.97F
SANTA MARIA    SUNNY     80  55  42 NW10      29.99F
$$
CAZ015-016-120000-
NORTHERN SACRAMENTO VALLEY

CITY           SKY/WX    TMP DP  RH WIND       PRES   REMARKS
REDDING        SUNNY    103  43  13 S10       29.91F HX  98
RED BLUFF      SUNNY    102  39  11 VRB7G24   29.92F HX  97
OROVILLE       SUNNY    103  45  14 VRB5      29.94F HX  99
$$
CAZ016>018-120000-
SOUTHERN SACRAMENTO VALLEY

CITY           SKY/WX    TMP DP  RH WIND       PRES   REMARKS
AUBURN         SUNNY     99  34  10 VRB5G13   30.02F HX  93
BEALE AFB      SUNNY    102  40  11 SW7       29.91F HX  97
LINCOLN        FAIR     100  36  10 W8        29.92F HX  95
MARYSVILLE     SUNNY    103  45  14 W8        29.92F HX  99
SAC INTL ARPT  SUNNY    101  40  12 SW7       29.91F HX  96
MATHER AIRPORT SUNNY    102  37  10 NW3G12    29.91F HX  96
DOWNTOWN SAC   N/A      105  MM  MM MISG
SAC EXEC ARPT  SUNNY    103  37  10 VRB5      29.92F HX  97
VACAVILLE      SUNNY    104  35   9 S10G18    29.93F HX  98
TRAVIS AFB     SUNNY    105  15   4 SW13      29.93F HX  96
$$
CAZ019>021-120000-
SAN JOAQUIN VALLEY

CITY           SKY/WX    TMP DP  RH WIND       PRES   REMARKS
STOCKTON       SUNNY    104  42  12 VRB6      29.92F HX  99
MODESTO        SUNNY    103  39  11 NW13      29.91F HX  97
MERCED         SUNNY    105  40  11 NW7       29.91F HX  99
LEMOORE        SUNNY    107  45  12 N9        29.91F HX 102
FRESNO         MOSUNNY  105  46  13 NW7       29.91F HX 101
HANFORD        PTSUNNY  105  50  15 VRB6      29.91F HX 102
PORTERVILLE    SUNNY    104  51  17 NW9       29.92F HX 101
BAKERSFIELD    SUNNY    104  48  15 NW10      29.90F HX 100
$$
CAZ011-012-071-120000-
NORTHERN MOUNTAINS

CITY           SKY/WX    TMP DP  RH WIND       PRES   REMARKS
YREKA          SUNNY     96  37  12 NW14      30.04F HX  91
MOUNT SHASTA   SUNNY     90  42  18 CALM      30.11F
ALTURAS        SUNNY     91  23   8 W18G28    30.15F
$$
CAZ011-012-071-120000-
SIERRA NEVADA MTNS

CITY           SKY/WX    TMP DP  RH WIND       PRES   REMARKS
BLUE CANYON    SUNNY     81  39  22 VRB7      30.31S
TRUCKEE        SUNNY     86  28  12 S12G22    30.32S
TAHOE VLY ARPT SUNNY     83  35  18 SW8G16    30.33S
MAMMOTH LAKES  FAIR      86  30  13 W22G30    30.38S
$$



 

View Past Reports for Sacramento, CA.

Products Courtesy of NOAA-NWS
NWS Information Parsing Script by Ken True at Saratoga Weather - Script by SE Lincoln Weather.

powered by Cumulus v1.9.3 (1059)
Ambient Weather VWS v14.00
Top Website Map Copyright © 2007 - 2020 Foresthillweather.com Never base important decisions on this or any weather information obtained from the Internet